DW4212 La Cabrera ES current weather conditions

sailwx.info

Wind from 346

Air temperature 18.3° C
Dewpoint 10.7° C

Last reported at 2016-Jun-25 23:49 UTC.
Time now 2016-Jun-26 01:05 UTC

Location: N 40°53' W 003°35'.
View on Google Maps.

See reports from other nearby stations

  
Tides and Currents Weather Stations Pressure Air Temp Water Temp Dewpoint Dewpoint Depression Visibility Wind Speed Wind Dir Waves Ship Positions
date/time (UTC)wind fromknots sea level pressurealtimeterstation pressurevisibilityair tempwater tempwave heightnotes
2016-Jun-25 23:49 346 18.3
2016-Jun-25 23:39 346 0 gusting 2 18.3
2016-Jun-25 23:29 346 1 gusting 4 18.3
2016-Jun-25 23:19 346 2 gusting 4 18.3
2016-Jun-25 23:09 346 1 gusting 5 18.3
2016-Jun-25 22:59 342 18.9
2016-Jun-25 22:49 340 18.9
2016-Jun-25 22:39 340 0 gusting 4 19.4
2016-Jun-25 22:29 334 1 gusting 5 19.4
2016-Jun-25 22:19 343 19.4
2016-Jun-25 22:09 348 2 gusting 6 19.4
2016-Jun-25 21:59 336 19.4
2016-Jun-25 21:49 335 0 gusting 5 20.0
2016-Jun-25 21:39 338 0 gusting 4 20.0
2016-Jun-25 21:29 350 2 gusting 7 20.0
2016-Jun-25 21:19 340 3 gusting 8 20.0
2016-Jun-25 21:09 347 1 gusting 5 20.6
2016-Jun-25 20:59 338 1 gusting 5 20.6
2016-Jun-25 20:49 335 0 gusting 5 21.1
2016-Jun-25 20:39 323 1 gusting 6 21.1
2016-Jun-25 20:29 348 0 gusting 5 21.7
2016-Jun-25 20:19 355 2 gusting 6 21.7
2016-Jun-25 20:09 336 0 gusting 6 22.2
2016-Jun-25 19:59 338 3 gusting 7 22.2
2016-Jun-25 19:49 326 2 gusting 10 22.8
2016-Jun-25 19:39 335 6 gusting 10 23.3
2016-Jun-25 19:29 005 5 gusting 12 23.3
2016-Jun-25 19:19 311 3 gusting 13 23.9
2016-Jun-25 19:09 325 5 gusting 10 25.0
2016-Jun-25 18:59 009 4 gusting 10 25.6
2016-Jun-25 18:49 333 1 gusting 7 26.1
2016-Jun-25 18:29 340 2 gusting 7 27.8
2016-Jun-25 18:19 326 3 gusting 6 28.3
2016-Jun-25 18:09 327 2 gusting 6 28.3
2016-Jun-25 17:59 207 28.3
2016-Jun-25 17:49 229 28.3
2016-Jun-25 17:39 232 28.9
2016-Jun-25 17:29 232 28.9
2016-Jun-25 17:19 221 29.4
2016-Jun-25 17:09 226 30.6
2016-Jun-25 16:59 233 30.6
2016-Jun-25 16:49 256 30.0
2016-Jun-25 16:39 230 28.9
2016-Jun-25 16:19 158 28.9
2016-Jun-25 16:09 183 30.0
2016-Jun-25 15:59 250 0 gusting 6 29.4
2016-Jun-25 15:49 158 28.9
2016-Jun-25 15:39 169 29.4
2016-Jun-25 15:29 264 0 gusting 3 29.4
2016-Jun-25 15:19 175 0 gusting 6 29.4
2016-Jun-25 15:09 176 1 gusting 5 29.4
2016-Jun-25 14:59 183 29.4
2016-Jun-25 14:49 053 28.9
2016-Jun-25 14:39 076 29.4
2016-Jun-25 14:29 200 28.9
2016-Jun-25 14:19 184 29.4
2016-Jun-25 14:09 155 1 gusting 4 30.0
2016-Jun-25 13:59 313 29.4
2016-Jun-25 13:49 194 28.9
2016-Jun-25 13:39 174 28.9
2016-Jun-25 13:29 196 1 gusting 6 28.3
2016-Jun-25 13:19 198 0 28.9
2016-Jun-25 13:09 187 1 gusting 7 29.4
2016-Jun-25 12:49 248 0 gusting 6 30.0
2016-Jun-25 12:39 217 30.0
2016-Jun-25 12:19 220 0 gusting 6 28.9
2016-Jun-25 12:09 188 1 gusting 6 28.9
2016-Jun-25 11:59 215 28.9
2016-Jun-25 11:49 271 28.9
2016-Jun-25 11:39 179 27.8
2016-Jun-25 11:29 161 27.8
2016-Jun-25 11:19 169 2 gusting 7 27.2
2016-Jun-25 11:09 175 27.2
2016-Jun-25 10:59 161 27.2
2016-Jun-25 10:49 187 0 gusting 6 26.1
2016-Jun-25 10:39 285 26.7
2016-Jun-25 10:29 140 26.7
2016-Jun-25 10:19 128 26.1
2016-Jun-25 10:09 188 0 gusting 5 26.1
2016-Jun-25 09:59 165 26.1
2016-Jun-25 09:49 155 0 gusting 4 26.1
2016-Jun-25 09:39 097 25.6
2016-Jun-25 09:29 086 25.0
2016-Jun-25 09:19 085 25.0
2016-Jun-25 09:09 086 24.4
2016-Jun-25 08:59 086 23.9
2016-Jun-25 08:49 089 23.3
2016-Jun-25 08:29 084 22.8
2016-Jun-25 08:19 022 22.8
2016-Jun-25 08:09 016 22.2
2016-Jun-25 07:59 355 21.7
2016-Jun-25 07:29 355 21.1
2016-Jun-25 07:19 355 20.6
2016-Jun-25 07:09 355 20.0
2016-Jun-25 06:59 355 19.4
2016-Jun-25 06:49 355 18.3
2016-Jun-25 06:39 355 17.2
2016-Jun-25 06:29 355 17.2
2016-Jun-25 06:19 355 16.7
2016-Jun-25 05:59 355 16.1
2016-Jun-25 05:49 355 15.6
2016-Jun-25 05:39 355 16.1
2016-Jun-25 05:29 355 15.6
2016-Jun-25 05:19 355 15.6
2016-Jun-25 05:09 355 15.0
2016-Jun-25 04:59 355 15.0
2016-Jun-25 04:49 355 15.6
2016-Jun-25 04:39 355 1 gusting 3 15.6
2016-Jun-25 04:29 355 0 gusting 2 16.1
2016-Jun-25 04:19 355 16.1
2016-Jun-25 04:09 355 16.1
2016-Jun-25 03:59 355 15.6
2016-Jun-25 03:39 355 16.1
2016-Jun-25 03:29 355 0 gusting 3 16.1
2016-Jun-25 03:19 355 16.1
2016-Jun-25 03:09 355 0 gusting 2 15.6
2016-Jun-25 02:59 355 15.6
2016-Jun-25 02:49 355 15.6
2016-Jun-25 02:39 355 15.6
2016-Jun-25 02:29 355 15.6
2016-Jun-25 02:19 355 16.1
2016-Jun-25 02:09 355 16.7
2016-Jun-25 01:59 355 16.7
2016-Jun-25 01:49 355 17.2
2016-Jun-25 01:39 355 17.2
2016-Jun-25 01:29 355 17.2
2016-Jun-25 01:19 355 17.2
2016-Jun-25 01:09 355 17.8
2016-Jun-25 00:59 349 17.2
2016-Jun-25 00:49 348 17.2
2016-Jun-25 00:39 348 16.7
2016-Jun-25 00:29 348 16.7
2016-Jun-25 00:19 348 16.7
2016-Jun-25 00:09 348 16.7
2016-Jun-24 23:59 348 16.7
2016-Jun-24 23:49 348 0 gusting 3 16.7
2016-Jun-24 23:39 348 16.7
2016-Jun-24 23:29 348 16.7
2016-Jun-24 23:19 348 18.3
2016-Jun-24 23:09 348 19.4
2016-Jun-24 22:59 348 19.4
2016-Jun-24 22:49 348 20.0
2016-Jun-24 22:39 348 20.0
2016-Jun-24 22:29 348 1 gusting 4 20.0
2016-Jun-24 22:19 348 20.6
2016-Jun-24 22:09 348 0 gusting 5 20.6
2016-Jun-24 21:59 346 0 gusting 6 20.6
2016-Jun-24 21:49 350 0 gusting 3 20.6
2016-Jun-24 21:39 355 20.6
2016-Jun-24 21:29 355 20.6
2016-Jun-24 21:19 351 1 gusting 2 20.6
2016-Jun-24 21:09 351 0 gusting 3 21.1
2016-Jun-24 20:59 350 0 gusting 3 21.7
2016-Jun-24 20:49 344 1 gusting 4 22.8
2016-Jun-24 20:39 312 22.8
2016-Jun-24 20:29 312 0 gusting 2 22.8
2016-Jun-24 20:19 312 23.3
2016-Jun-24 20:09 312 23.3
2016-Jun-24 19:59 312 0 gusting 4 23.9
2016-Jun-24 19:49 309 0 gusting 6 24.4
2016-Jun-24 19:39 312 0 gusting 6 24.4
2016-Jun-24 19:29 306 0 gusting 5 25.0
2016-Jun-24 19:19 317 1 gusting 5 25.6
2016-Jun-24 19:09 298 2 gusting 6 25.6
2016-Jun-24 18:59 299 3 gusting 7 25.6
2016-Jun-24 18:49 304 2 gusting 6 26.1
2016-Jun-24 18:39 319 2 gusting 8 25.6
2016-Jun-24 18:29 303 2 gusting 6 26.1
2016-Jun-24 18:19 315 2 gusting 6 26.7
2016-Jun-24 18:09 291 4 gusting 10 27.2
2016-Jun-24 17:49 311 4 gusting 9 27.8
2016-Jun-24 17:39 320 5 gusting 12 28.3
2016-Jun-24 17:29 311 4 gusting 10 28.3
2016-Jun-24 17:19 308 4 gusting 7 28.9
2016-Jun-24 17:09 340 4 gusting 8 29.4
2016-Jun-24 16:59 319 3 gusting 9 30.0
2016-Jun-24 16:49 263 1 gusting 6 30.0
2016-Jun-24 16:39 236 0 gusting 7 30.6
2016-Jun-24 16:29 320 3 gusting 12 31.1
2016-Jun-24 16:19 236 1 gusting 9 30.6
2016-Jun-24 15:59 269 4 gusting 16 31.1
2016-Jun-24 15:49 238 2 gusting 16 31.7
2016-Jun-24 15:39 209 1 gusting 9 31.7
2016-Jun-24 15:29 235 0 gusting 11 31.1
2016-Jun-24 15:19 223 0 gusting 9 31.1
2016-Jun-24 15:09 209 1 gusting 6 31.1
2016-Jun-24 14:59 351 2 gusting 7 31.7
2016-Jun-24 14:49 229 2 gusting 10 31.7
2016-Jun-24 14:39 241 1 gusting 9 31.7
2016-Jun-24 14:29 238 3 gusting 8 31.1
2016-Jun-24 14:19 256 1 gusting 11 31.7
2016-Jun-24 14:09 248 2 gusting 12 31.1
2016-Jun-24 13:59 234 1 gusting 11 31.1
2016-Jun-24 13:49 224 0 gusting 13 31.7
2016-Jun-24 13:39 208 2 gusting 8 31.1
2016-Jun-24 13:29 272 1 gusting 12 31.1
2016-Jun-24 13:19 206 3 gusting 9 31.1
2016-Jun-24 13:09 212 1 gusting 10 31.1
2016-Jun-24 12:59 215 1 gusting 6 31.1
2016-Jun-24 12:49 240 2 gusting 7 30.6
2016-Jun-24 12:39 205 1 gusting 10 30.0
2016-Jun-24 12:29 252 0 gusting 5 30.0
2016-Jun-24 12:19 207 30.0
2016-Jun-24 12:09 210 30.6
2016-Jun-24 11:59 220 0 gusting 6 30.6
2016-Jun-24 11:49 221 2 gusting 9 30.0
2016-Jun-24 11:39 239 2 gusting 6 28.9
2016-Jun-24 11:29 168 3 gusting 9 28.9
2016-Jun-24 11:19 232 1 gusting 6 27.8
2016-Jun-24 11:09 197 27.2
2016-Jun-24 10:59 187 0 gusting 6 27.8
2016-Jun-24 10:49 193 1 gusting 7 27.8
2016-Jun-24 10:39 182 27.8
2016-Jun-24 10:29 190 0 gusting 4 27.8
2016-Jun-24 10:19 198 1 gusting 6 27.8
2016-Jun-24 10:09 163 1 gusting 6 28.3
2016-Jun-24 09:59 224 0 gusting 3 28.3
2016-Jun-24 09:49 176 0 gusting 6 27.2
2016-Jun-24 09:39 193 26.7
2016-Jun-24 09:29 171 26.1
2016-Jun-24 09:19 177 0 gusting 2 25.6
2016-Jun-24 09:09 088 25.6
2016-Jun-24 08:59 088 25.0
2016-Jun-24 08:49 088 25.0
2016-Jun-24 08:29 037 23.9
2016-Jun-24 08:19 037 23.9
2016-Jun-24 08:09 295 23.3
2016-Jun-24 07:59 295 23.3
2016-Jun-24 07:49 287 23.3
2016-Jun-24 07:29 348 22.2
2016-Jun-24 07:19 348 21.1
2016-Jun-24 07:09 348 21.1
2016-Jun-24 06:59 348 0 gusting 3 20.6
2016-Jun-24 06:49 348 0 gusting 3 20.0
2016-Jun-24 06:29 349 18.3
2016-Jun-24 06:19 355 17.8
2016-Jun-24 05:49 026 16.1
2016-Jun-24 05:39 026 16.1
2016-Jun-24 05:29 026 15.6
2016-Jun-24 05:19 026 15.6
2016-Jun-24 04:59 026 15.6
2016-Jun-24 04:49 026 15.6
2016-Jun-24 04:39 340 15.6
2016-Jun-24 04:19 340 16.1
2016-Jun-24 04:09 340 16.1
2016-Jun-24 03:49 340 16.7
2016-Jun-24 03:39 340 16.7
2016-Jun-24 03:29 340 17.2
2016-Jun-24 03:19 340 18.9
2016-Jun-24 03:09 340 20.0
2016-Jun-24 02:59 340 20.0
2016-Jun-24 02:49 341 0 gusting 2 20.0
2016-Jun-24 02:39 341 20.0
2016-Jun-24 02:29 340 0 gusting 4 20.0
2016-Jun-24 02:19 340 0 gusting 2 19.4
2016-Jun-24 02:09 340 0 gusting 4 18.9
2016-Jun-24 01:59 338 1 gusting 5 18.9